Regional Weather Roundup
Issued by NWS

Home | Current Version | Previous Version | Text Only | Print | Product List | Glossary On
Versions: 1 2 3 4 5 6 7 8 9 10 11 12 13 14 15 16 17 18 19 20 21 22 23 24 25 26 27
000
ASUS45 KBOU 160107
RWRCO

WEATHER ROUNDUP FOR COLORADO
NATIONAL WEATHER SERVICE DENVER/BOULDER CO
700 PM MDT TUE AUG 15 2017

NOTE: "FAIR" INDICATES FEW OR NO CLOUDS BELOW 12000 FEET WITH NO
SIGNIFICANT WEATHER AND/OR OBSTRUCTIONS TO VISIBILITY.

COZ001>005-013-030-031-160200-
...NORTHWEST COLORADO...

CITY           SKY/WX    TMP DP  RH WIND       PRES   REMARKS
CRAIG          RAIN      57  49  74 W6        30.14R
HAYDEN         CLOUDY    56  50  80 SW5       30.17R
MEEKER         CLOUDY    58  49  72 NE17G23   30.12R
RABBIT EARS PA MOCLDY    43  41  93 W8        30.32R
STEAMBOAT SPGS CLOUDY    53  49  87 CALM      30.15R
WALDEN         FAIR      50  41  71 N17       30.20R
$$

COZ006>008-011-160200-
...WEST CENTRAL VALLEYS...

CITY           SKY/WX    TMP DP  RH WIND       PRES   REMARKS
GRAND JUNCTION CLOUDY    77  34  21 NW5       29.94F
MONTROSE       FAIR      74  28  18 SW9       30.03R
EAGLE          FAIR      72  27  18 W20G25    30.06R
RIFLE          CLOUDY    75  32  20 SW15G22   29.99S
DELTA          NOT AVBL
NUCLA          PTSUNNY   73  23  15 SW12      30.07F
$$

COZ017>023-064>068-160200-
...SOUTHWEST COLORADO...

CITY           SKY/WX    TMP DP  RH WIND       PRES   REMARKS
DURANGO        FAIR      71  24  17 W14       30.10S
CORTEZ         FAIR      72  29  20 W16G26    30.06R
PAGOSA SPRINGS FAIR      68  24  19 W6        30.16S
TELLURIDE      NOT AVBL
WOLF CREEK PAS PTSUNNY   45  30  57 S13G22    30.46F
$$

COZ009-010-012-014-032>034-037-058>063-160200-
...CENTRAL COLORADO...

CITY           SKY/WX    TMP DP  RH WIND       PRES   REMARKS
ASPEN          FAIR      67  24  19 N6        30.12R
BUENA VISTA    FAIR      66  25  21 W6        30.11R
COPPER MTN     CLOUDY    50  28  43 NW7G18    30.40S
BERTHOUD PASS  CLOUDY    41  36  81 NW17G25   30.41S THUNDER
COTTONWOOD PAS FAIR      61  21  21 W8G20     30.24S
GUNNISON       FAIR      63  36  36 W6        30.14S
KREMMLING      FAIR      66  41  39 N15G22    30.12R
LEADVILLE      CLOUDY    55  26  32 NW8       30.24R
MONARCH PASS   PTSUNNY   48  23  37 W40       30.48F
SALIDA         FAIR      69  28  22 W9        30.15R
SUNLIGHT       PTSUNNY   46  30  53 SW17G26   30.34F
WILKERSON PASS FAIR      52  27  37 SW13G20   30.35F
$$

COZ069>075-160200-
...SAN LUIS VALLEY/SANGRE DE CRISTO MOUNTAINS...

CITY           SKY/WX    TMP DP  RH WIND       PRES   REMARKS
ALAMOSA        FAIR      68  37  32 W6        30.08F
DEL NORTE      FAIR      68  34  28 SW20      30.12F
LA VETA PASS   NOT AVBL
SAGUACHE       FAIR      66  28  24 NW10G21   30.12S
$$

COZ035-036-038>040-160200-
...NORTHERN COLORADO FRONT RANGE...

CITY           SKY/WX    TMP DP  RH WIND       PRES   REMARKS
DENVER INTL AP MOCLDY    73  47  39 SW9       29.87F
DMNS CITY PARK   N/A     73  45  36 N7        29.89S
AURORA         MOCLDY    73  48  40 W5        29.89F
FRONT RANGE AP FAIR      73  50  43 W7        29.88F
ERIE MUNI ARPT LGT RAIN  73  52  46 W14G21    29.93R
BOULDER MUN AP TSTM      73  41  31 NE6       29.90S
CENTENNIAL     MOCLDY    72  49  44 SW6       29.91F
BROOMFIELD     MOCLDY    73  48  40 NW23      29.94R
FORT COLLINS   MOCLDY    67  50  54 N30G40    29.94R
LONGMONT       LGT RAIN  77  50  39 N15G23    29.93R
$$

COZ041-046-047-076>085-087-088-160200-
...PIKES PEAK/PALMER DIVIDE AND SOUTHERN FOOTHILLS...

CITY           SKY/WX    TMP DP  RH WIND       PRES   REMARKS
COLO. SPRINGS  MOCLDY    76  50  40 E13       29.95R
A. F. ACADEMY  FAIR      69  50  50 N10       29.95F
SCHRIEVER AFB  FAIR      71  47  41 NE15      29.96R
CHEYENNE MTN   FAIR      71  47  42 NW7       29.94S
ELLICOTT       CLOUDY   N/A N/A N/A NE23G29   29.95R THUNDER
FALCON         FAIR      70  50  48 E8        30.01R
FORT CARSON    MOCLDY    75  51  43 NW13      29.90R
LIMON          FAIR      62  58  86 N3        29.92R
MONUMENT HILL  FAIR      63  54  72 CALM      30.01F
CANON CITY     PTCLDY    84  41  21 W14       29.85S
WALSENBURG     FAIR      81  30  16 W14       29.92R
TRINIDAD       MOCLDY    73  53  49 SE15      29.92R
$$

COZ042>045-048>051-090-091-160200-
...NORTHEAST COLORADO...

CITY           SKY/WX    TMP DP  RH WIND       PRES   REMARKS
GREELEY ARPT   MOCLDY    64  54  68 N25G40    29.93R
AKRON          FAIR      76  60  57 S8        29.84F
BURLINGTON     FAIR      77  62  59 SE10      29.81S
WRAY           NOT AVBL
YUMA           FAIR      75  54  46 SW3       29.79F
STERLING       MOCLDY    68  54  60 NW18G36   29.85R
HOLYOKE        FAIR      79  63  57 S10       29.76F
FORT MORGAN    FAIR      66  51  58 N26G35    29.82F
$$

COZ086-089-092>099-160200-
...SOUTHEAST COLORADO...

CITY           SKY/WX    TMP DP  RH WIND       PRES   REMARKS
PUEBLO         FAIR      81  52  36 SE17G26   29.79S
LA JUNTA       FAIR      79  51  37 S13       29.78S
LAMAR          FAIR      79  54  41 E12       29.72F
SPRINGFIELD      N/A     75  57  53 SW10      29.85S
$$




USA.gov is the U.S. government's official web portal to all federal, state and local government web resources and services.